Погода в Копенгагене

Дания     55°40′50″N   12°35′08″E
темп.,
°C
ветер,
м/с
пор.,
м/с
влажн.,
%
обл.,
%
осадки,
мм/ч
давл.,
гПа
погр.,
м
25 февраля, чт
чт2501:00+9юз5149042 0.0 1024394
04:00+9юз41282100 0.0 1022306
07:00+8юз5118494 0.0 1022268
10:00+10юз6137977 0.0 1021563
13:00+13зюз6116884 0.0 1021836
16:00+12зюз71276100 0.0 10201130
19:00+8з61284100 0.0 1022662
22:00+6з61470100 0.0 1023764
26 февраля, пт
пт2601:00+5з6138188 0.0 1025679
04:00+4з613860 0.0 1024544
07:00+4з614860 0.0 1024628
10:00+6з8147670 0.0 1024976
13:00+8зсз9147144 0.0 10251089
16:00+8зсз9156952 0.0 10241148
19:00+6зсз8147226 0.0 1026879
22:00+4зсз613830 0.0 1027504
27 февраля, сб
сб2701:00+3сз510880 0.0 1029297
04:00+2сз35900 0.0 1030147
07:00+2сз23820 0.0 103168
10:00+5с13590 0.0 1032155
13:00+9зсз12440 0.0 1034437
16:00+9сз22510 0.0 1033352
19:00+5зсз22713 0.0 103464
22:00+4з23860 0.0 103461
28 февраля, вс
вс2801:00+3з25900 0.0 1034111
04:00+3зюз36907 0.0 1033146
07:00+2з38925 0.0 1033200
10:00+5зсз378360 0.0 1034338
13:00+8зсз357656 0.0 1034444
16:00+7зсз358047 0.0 1033427
19:00+4ссз119152 0.0 103343
22:00+4ююв119313 0.0 103422
1 марта, пн
пн101:00+3ююз12947 0.0 103428
04:00+2з23940 0.0 103355
07:00+2з23950 0.0 103454
10:00+5з13821 0.0 1034190
13:00+9зюз23620 0.0 1034461
16:00+9зюз13620 0.0 1033431
19:00+6зсз11780 0.0 103322
22:00+5юз12810 0.0 103424